Torna al catalogo

COSMOS 1761

AttivoMilitareHEO
NORAD 16849·PAYLOAD·🇷🇺 Russia

Lanciato Jul 5, 1986 da Plesetsk Cosmodrome

Loading…

Prossimi Passaggi (prossime 24 ore)

TLE

AggiornatoSource: Space-Track

Epoca: Sep 14, 2026, 15:29 UTC

1 16849U 86050A   26257.64530133 -.00000288  00000-0  00000-0 0  9993
2 16849  70.6994  40.0485 5636928   1.0570 177.8384  2.00324570294385

Traccia COSMOS 1761 in tempo reale con AllMySat

Download on the App Store